EW4529 Weather Reports


Display with metric or nautical units.
time (UTC)temp
F
wind
direction
speed
MPH
gust
MPH
rain 1hr
in
rain 24hr
in
rain mn
in
humidity
%
barometer
mb
20260906020327 68 301 0.0 1.0 0.00 0.00 0.00 79 1012.5
20260906015322 67 347 0.0 0.0 0.00 0.00 0.00 79 1012.3
20260906014318 68 347 0.0 0.0 0.00 0.00 0.00 80 1012.4
20260906013333 68 347 0.0 0.0 0.00 0.00 0.00 79 1012.3
20260906012329 68 347 0.0 0.0 0.00 0.00 0.00 80 1012.2
20260906011323 68 347 0.0 0.0 0.00 0.00 0.00 78 1012.0
20260906010318 69 347 0.0 0.0 0.00 0.00 0.00 78 1011.9
20260906005334 69 347 0.0 0.0 0.00 0.00 0.00 76 1011.8
20260906004322 70 347 0.0 0.0 0.00 0.00 0.00 75 1011.7
20260906003319 70 347 0.0 0.0 0.00 0.00 0.00 76 1011.6
20260906002334 70 347 0.0 0.0 0.00 0.00 0.00 75 1011.5
20260906001331 71 347 0.0 0.0 0.00 0.00 0.00 74 1011.3
20260906000322 72 347 0.0 0.0 0.00 0.00 0.00 72 1011.2
20260905235340 72 347 0.0 0.0 0.00 0.00 0.00 70 1011.1
20260905234314 73 347 0.0 0.0 0.00 0.00 0.00 68 1011.0
20260905233333 74 347 0.0 0.0 0.00 0.00 0.00 65 1010.8
20260905232320 75 347 0.0 0.0 0.00 0.00 0.00 62 1010.8
20260905231344 76 347 0.0 0.0 0.00 0.00 0.00 61 1010.8
20260905230314 76 347 0.0 0.0 0.00 0.00 0.00 60 1010.8
20260905225310 77 347 0.0 1.0 0.00 0.00 0.00 57 1010.7
20260905224328 77 354 0.0 2.0 0.00 0.00 0.00 56 1010.8
20260905223326 78 345 0.0 2.0 0.00 0.00 0.00 56 1010.7
20260905222323 78 345 1.0 3.0 0.00 0.00 0.00 53 1010.6
20260905221311 79 342 0.0 5.0 0.00 0.00 0.00 52 1010.6
20260905220313 80 25 1.0 3.0 0.00 0.00 0.00 50 1010.5
20260905215332 81 349 1.0 4.0 0.00 0.00 0.00 50 1010.5
20260905214328 82 329 1.0 9.0 0.00 0.00 0.00 48 1010.5
20260905213325 81 308 0.0 2.0 0.00 0.00 0.00 48 1010.4
20260905212314 82 49 1.0 4.0 0.00 0.00 0.00 46 1010.5
20260905211338 83 190 0.0 6.0 0.00 0.00 0.00 46 1010.4
20260905210309 83 236 2.0 5.0 0.00 0.00 0.00 45 1010.3
20260905205327 83 328 0.0 4.0 0.00 0.00 0.00 50 1010.2
20260905204324 82 356 0.0 6.0 0.00 0.00 0.00 51 1010.4
20260905203317 82 160 2.0 5.0 0.00 0.00 0.00 50 1010.4
20260905202314 81 15 0.0 3.0 0.00 0.00 0.00 55 1010.5
20260905201309 81 150 1.0 5.0 0.00 0.00 0.00 52 1010.5
20260905195314 81 347 0.0 4.0 0.00 0.00 0.00 50 1010.6
20260905194310 83 147 0.0 3.0 0.00 0.00 0.00 51 1010.6
20260905193350 82 155 0.0 2.0 0.00 0.00 0.00 54 1010.7
20260905192324 80 42 0.0 3.0 0.00 0.00 0.00 58 1010.8
20260905191343 81 147 0.0 2.0 0.00 0.00 0.00 54 1010.8
20260905190342 82 14 1.0 6.0 0.00 0.00 0.00 51 1010.8
20260905185309 82 34 1.0 5.0 0.00 0.00 0.00 52 1010.8
20260905184333 82 293 0.0 4.0 0.00 0.00 0.00 54 1010.8
20260905183325 83 175 0.0 4.0 0.00 0.00 0.00 49 1010.8
20260905182320 84 32 1.0 7.0 0.00 0.00 0.00 50 1010.9
20260905181338 84 243 0.0 2.0 0.00 0.00 0.00 52 1011.0
20260905180314 82 337 0.0 5.0 0.00 0.00 0.00 51 1011.0
20260905175329 82 7 1.0 8.0 0.00 0.00 0.00 47 1011.1
20260905174319 83 345 3.0 7.0 0.00 0.00 0.00 46 1011.2
20260905173321 83 52 1.0 5.0 0.00 0.00 0.00 47 1011.2
20260905172309 83 352 1.0 4.0 0.00 0.00 0.00 50 1011.2
20260905171333 82 335 1.0 4.0 0.00 0.00 0.00 51 1011.3
20260905170323 82 323 0.0 4.0 0.00 0.00 0.00 53 1011.4
20260905165317 81 222 0.0 3.0 0.00 0.00 0.00 59 1011.4
20260905164313 81 347 0.0 5.0 0.00 0.00 0.00 54 1011.6
20260905163328 81 316 2.0 6.0 0.00 0.00 0.00 52 1011.6
20260905162325 80 288 1.0 8.0 0.00 0.00 0.00 55 1011.8
20260905161348 81 283 2.0 6.0 0.00 0.00 0.00 53 1011.9
20260905160344 82 338 1.0 5.0 0.00 0.00 0.00 53 1011.9
20260905155325 83 306 0.0 6.0 0.00 0.00 0.00 51 1011.8
20260905154323 82 330 0.0 4.0 0.00 0.00 0.00 55 1011.8
20260905153314 79 259 2.0 7.0 0.00 0.00 0.00 58 1011.8
20260905152316 79 333 1.0 7.0 0.00 0.00 0.00 58 1011.8
20260905151313 79 291 2.0 5.0 0.00 0.00 0.00 59 1012.0
20260905150331 79 250 0.0 5.0 0.00 0.00 0.00 62 1011.9
20260905145329 78 257 1.0 6.0 0.00 0.00 0.00 61 1011.8
20260905144331 78 342 2.0 6.0 0.00 0.00 0.00 64 1011.7
20260905143321 77 332 0.0 2.0 0.00 0.00 0.00 66 1011.6
20260905142323 76 10 1.0 8.0 0.00 0.00 0.00 66 1011.7
20260905141322 76 163 0.0 8.0 0.00 0.00 0.00 67 1011.7
20260905140319 76 340 2.0 5.0 0.00 0.00 0.00 69 1011.7
20260905135319 75 331 1.0 4.0 0.00 0.00 0.00 72 1011.5
20260905134322 74 352 0.0 5.0 0.00 0.00 0.00 73 1011.7
20260905133339 74 14 0.0 3.0 0.00 0.00 0.00 74 1011.4
20260905132321 74 356 0.0 3.0 0.00 0.00 0.00 75 1011.4
20260905131324 73 6 0.0 2.0 0.00 0.00 0.00 77 1011.5
20260905130345 73 5 1.0 4.0 0.00 0.00 0.00 77 1011.5
20260905125312 72 3 1.0 2.0 0.00 0.00 0.00 78 1011.5
20260905124336 72 4 1.0 3.0 0.00 0.00 0.00 80 1011.7
20260905123346 72 8 1.0 3.0 0.00 0.00 0.00 82 1011.8
20260905122321 72 58 0.0 3.0 0.00 0.00 0.00 82 1011.8
20260905121317 72 11 1.0 3.0 0.00 0.00 0.00 80 1011.7
20260905120338 71 328 0.0 2.0 0.00 0.00 0.00 80 1011.9
20260905115334 71 7 0.0 3.0 0.00 0.00 0.00 81 1011.8
20260905114326 71 15 0.0 2.0 0.00 0.00 0.00 83 1011.7
20260905113337 71 8 0.0 0.0 0.00 0.00 0.00 84 1011.6
20260905112313 71 15 0.0 2.0 0.00 0.00 0.00 84 1011.4
20260905111335 71 143 0.0 0.0 0.00 0.00 0.00 85 1011.4
20260905110345 71 143 0.0 0.0 0.00 0.00 0.00 86 1011.3
20260905105320 71 143 0.0 0.0 0.00 0.00 0.00 86 1011.1
20260905104317 71 143 0.0 0.0 0.00 0.00 0.00 85 1011.0
20260905103314 71 143 0.0 0.0 0.00 0.00 0.00 83 1010.8
20260905102336 71 143 0.0 0.0 0.00 0.00 0.00 82 1010.8
20260905101332 71 143 0.0 0.0 0.00 0.00 0.00 81 1010.8
20260905100330 71 143 0.0 0.0 0.00 0.00 0.00 80 1010.7
20260905095349 72 143 0.0 0.0 0.00 0.00 0.00 81 1010.7
20260905094320 72 143 0.0 0.0 0.00 0.00 0.00 80 1010.6
20260905093316 72 143 0.0 0.0 0.00 0.00 0.00 80 1010.7
20260905092333 72 147 0.0 0.0 0.00 0.00 0.00 80 1010.6
20260905091311 72 147 0.0 0.0 0.00 0.00 0.00 80 1010.7
20260905090320 72 149 0.0 0.0 0.00 0.00 0.00 81 1010.7
20260905085344 72 355 0.0 1.0 0.00 0.00 0.00 81 1010.6
20260905084313 72 354 0.0 0.0 0.00 0.00 0.00 81 1010.6
20260905083333 72 5 0.0 1.0 0.00 0.00 0.00 81 1010.6
20260905082327 72 5 0.0 0.0 0.00 0.00 0.00 81 1010.5
20260905081349 72 5 0.0 0.0 0.00 0.00 0.00 82 1010.6
20260905080317 72 5 1.0 2.0 0.00 0.00 0.00 82 1010.7
20260905075313 72 8 0.0 3.0 0.00 0.00 0.00 83 1010.6
20260905074328 72 315 0.0 0.0 0.00 0.00 0.00 86 1010.6
20260905073318 72 314 0.0 0.0 0.00 0.00 0.00 85 1010.5
20260905072316 72 314 0.0 0.0 0.00 0.00 0.00 84 1010.6
20260905071314 72 314 0.0 0.0 0.00 0.00 0.00 85 1010.6
20260905070323 72 314 0.0 0.0 0.00 0.00 0.00 89 1010.7
20260905065320 72 314 0.0 0.0 0.00 0.00 0.00 90 1010.8
20260905064316 72 314 0.0 0.0 0.00 0.00 0.00 90 1010.8
20260905063332 72 314 0.0 0.0 0.00 0.00 0.00 90 1010.8
20260905062325 72 314 0.0 0.0 0.00 0.00 0.00 89 1010.9
20260905061318 72 314 0.0 0.0 0.00 0.00 0.00 88 1011.0
20260905060314 72 314 0.0 0.0 0.00 0.00 0.00 88 1011.1
20260905055311 72 313 0.0 0.0 0.00 0.00 0.00 88 1011.0
20260905054327 73 314 0.0 0.0 0.00 0.00 0.00 87 1011.1
20260905053315 73 314 0.0 0.0 0.00 0.00 0.00 86 1011.0
20260905052312 74 314 0.0 0.0 0.00 0.00 0.00 84 1011.1
20260905051328 75 314 0.0 0.0 0.00 0.00 0.00 83 1011.2
20260905050319 75 314 0.0 0.0 0.00 0.00 0.00 83 1011.2
20260905045316 76 309 0.0 0.0 0.00 0.00 0.00 82 1011.2
20260905044314 76 309 0.0 1.0 0.00 0.00 0.00 81 1011.4
20260905043355 76 147 0.0 1.0 0.00 0.00 0.00 80 1011.8
20260905042330 76 256 0.0 1.0 0.00 0.00 0.00 80 1011.7
20260905041320 76 33 0.0 0.0 0.00 0.00 0.00 79 1011.5
20260905040316 76 34 0.0 0.0 0.00 0.00 0.00 78 1011.4
20260905035311 77 34 0.0 0.0 0.00 0.00 0.00 78 1011.4
20260905034346 77 34 0.0 0.0 0.00 0.00 0.00 79 1011.4
20260905033315 77 34 0.0 0.0 0.00 0.00 0.00 80 1011.4
20260905032339 77 34 0.0 0.0 0.00 0.00 0.00 81 1011.3
20260905031335 77 34 0.0 0.0 0.00 0.00 0.00 81 1011.3
20260905030326 77 34 0.0 0.0 0.00 0.00 0.00 81 1011.3
20260905025322 77 34 0.0 0.0 0.00 0.00 0.00 81 1011.4
20260905024325 77 34 0.0 0.0 0.00 0.00 0.00 82 1011.3
20260905023317 77 35 0.0 0.0 0.00 0.00 0.00 82 1011.3
20260905022314 77 34 0.0 0.0 0.00 0.00 0.00 82 1011.3
20260905021311 77 34 0.0 0.0 0.00 0.00 0.00 82 1011.3